TimeCDT,TemperatureF,Dew PointF,Humidity,Sea Level PressureIn,VisibilityMPH,Wind Direction,Wind SpeedMPH,Gust SpeedMPH,PrecipitationIn,Events,Conditions,WindDirDegrees,DateUTC
12:54 AM,66.9,64.0,90,29.87,9.0,ENE,4.6,-,N/A,,Clear,60,2013-06-12 05:54:00
1:54 AM,66.9,63.0,87,29.88,10.0,NNE,4.6,-,N/A,,Clear,30,2013-06-12 06:54:00
2:54 AM,66.9,64.9,93,29.87,7.0,ENE,6.9,-,0.00,Rain,Light Rain,60,2013-06-12 07:54:00
3:43 AM,66.2,64.4,94,29.80,6.0,SE,18.4,-,0.01,Rain,Rain,130,2013-06-12 08:43:00
3:54 AM,66.9,63.0,87,29.79,8.0,SE,15.0,21.9,0.02,Rain,Light Rain,130,2013-06-12 08:54:00
4:02 AM,66.2,62.6,88,29.74,8.0,ESE,24.2,31.1,0.00,Rain-Thunderstorm,Rain,120,2013-06-12 09:02:00
4:17 AM,66.2,62.6,88,29.79,10.0,NNE,23.0,29.9,0.01,Rain,Light Rain,20,2013-06-12 09:17:00
4:28 AM,66.2,62.6,88,29.85,9.0,Variable,4.6,-,0.01,Rain,Light Rain,0,2013-06-12 09:28:00
4:38 AM,66.2,62.6,88,29.87,9.0,North,13.8,-,0.01,,Mostly Cloudy,10,2013-06-12 09:38:00
4:54 AM,66.9,63.0,87,29.88,9.0,NNE,4.6,-,0.01,,Scattered Clouds,20,2013-06-12 09:54:00
5:54 AM,66.0,63.0,90,29.87,6.0,SSE,9.2,-,0.03,Rain,Light Rain,150,2013-06-12 10:54:00
6:54 AM,66.9,64.0,90,29.70,9.0,SE,21.9,32.2,0.06,Rain,Light Rain,130,2013-06-12 11:54:00
7:45 AM,66.2,64.4,94,29.80,8.0,NNE,8.1,-,0.00,,Clear,20,2013-06-12 12:45:00
7:54 AM,66.9,64.0,90,29.78,7.0,NNE,9.2,-,0.00,,Clear,30,2013-06-12 12:54:00
8:54 AM,70.0,66.0,87,29.77,10.0,ENE,10.4,-,N/A,,Clear,70,2013-06-12 13:54:00
9:54 AM,73.0,66.0,79,29.81,10.0,NNE,3.5,-,N/A,,Partly Cloudy,20,2013-06-12 14:54:00
10:15 AM,73.4,66.2,78,29.83,10.0,Calm,Calm,-,N/A,,Mostly Cloudy,0,2013-06-12 15:15:00
10:42 AM,73.4,66.2,78,29.82,10.0,Calm,Calm,-,N/A,,Overcast,0,2013-06-12 15:42:00
10:54 AM,75.9,68.0,76,29.81,10.0,NE,8.1,-,N/A,,Mostly Cloudy,50,2013-06-12 15:54:00
11:46 AM,71.6,66.2,83,29.83,10.0,NE,11.5,-,N/A,,Overcast,40,2013-06-12 16:46:00
11:54 AM,71.1,66.0,84,29.81,10.0,NE,9.2,-,N/A,,Overcast,50,2013-06-12 16:54:00
12:54 PM,73.0,66.9,81,29.79,10.0,NE,13.8,-,N/A,,Overcast,40,2013-06-12 17:54:00
1:01 PM,73.4,66.2,78,29.80,10.0,NE,15.0,-,N/A,,Overcast,50,2013-06-12 18:01:00
1:12 PM,73.4,66.2,78,29.80,10.0,ENE,15.0,-,N/A,,Overcast,60,2013-06-12 18:12:00
1:54 PM,73.9,66.9,79,29.76,10.0,ENE,17.3,-,N/A,,Overcast,70,2013-06-12 18:54:00
2:54 PM,73.9,66.9,79,29.75,10.0,ENE,13.8,-,N/A,,Overcast,70,2013-06-12 19:54:00
3:10 PM,73.4,66.2,78,29.77,10.0,ENE,9.2,-,N/A,,Overcast,60,2013-06-12 20:10:00
3:24 PM,73.4,66.2,78,29.77,10.0,ENE,9.2,-,N/A,,Overcast,70,2013-06-12 20:24:00
3:54 PM,73.0,66.9,81,29.75,10.0,NE,10.4,-,N/A,,Overcast,40,2013-06-12 20:54:00
4:02 PM,73.4,66.2,78,29.77,10.0,NE,10.4,-,N/A,,Overcast,50,2013-06-12 21:02:00
4:54 PM,73.9,66.0,76,29.73,10.0,NE,9.2,-,N/A,,Mostly Cloudy,50,2013-06-12 21:54:00
5:02 PM,73.4,66.2,78,29.75,10.0,NE,12.7,-,N/A,,Overcast,40,2013-06-12 22:02:00
5:33 PM,73.4,64.4,73,29.75,10.0,NNE,13.8,-,N/A,,Overcast,30,2013-06-12 22:33:00
5:54 PM,73.0,64.9,76,29.72,10.0,NE,13.8,-,N/A,,Overcast,40,2013-06-12 22:54:00
6:39 PM,71.6,64.4,78,29.74,10.0,NNE,21.9,26.5,0.00,Rain,Light Rain,30,2013-06-12 23:39:00
6:54 PM,70.0,66.0,87,29.75,7.0,NNE,16.1,-,0.00,Rain-Thunderstorm,Light Thunderstorms and Rain,20,2013-06-12 23:54:00
7:05 PM,69.8,64.4,83,29.76,6.0,NNE,16.1,26.5,0.01,Rain-Thunderstorm,Light Thunderstorms and Rain,20,2013-06-13 00:05:00
7:54 PM,66.9,64.0,90,29.77,5.0,North,17.3,-,0.10,Rain-Thunderstorm,Thunderstorms and Rain,10,2013-06-13 00:54:00
8:05 PM,66.2,64.4,94,29.78,6.0,North,16.1,23.0,0.00,,Mostly Cloudy,10,2013-06-13 01:05:00
8:54 PM,66.9,63.0,87,29.79,7.0,North,19.6,25.3,0.00,Rain,Light Rain,10,2013-06-13 01:54:00
9:54 PM,66.0,63.0,90,29.83,10.0,North,10.4,-,0.00,,Clear,10,2013-06-13 02:54:00
10:54 PM,66.0,62.1,87,29.84,10.0,North,12.7,-,N/A,,Clear,360,2013-06-13 03:54:00
11:54 PM,64.9,61.0,87,29.87,10.0,North,6.9,-,N/A,,Clear,350,2013-06-13 04:54:00